Terminal Aerodrome Forecast
Issued by NWS Dodge City, KS

Home | Current Version | Previous Version | Text Only | Print | Product List | Glossary On
Versions: 1 2 3 4 5 6 7 8 9 10 11 12 13 14 15 16 17 18 19 20 21 22 23 24 25 26 27 28 29 30 31 32 33
000
FTUS43 KDDC 220100 AAA
TAFDDC
TAF AMD
KDDC 220134Z 2202/2224 15011KT P6SM OVC200
     FM220230 30024G38KT P6SM OVC150
     FM220300 VRB20G30KT P6SM VCTS OVC060CB
     FM220400 14012KT P6SM OVC200
     FM220600 18015KT P6SM SCT200
     FM221100 22012KT P6SM SKC
     FM221900 19015G23KT P6SM SKC=

USA.gov is the U.S. government's official web portal to all federal, state and local government web resources and services.